Dewpoint
11 11 11 11 12 11 10 10 10 8 10 9 8 9 9 8 9 9 9 9 9 9 9 9 9 8 9 8 8 8 7 7 6 5 5 4 5 5 5 5 4 4 4
10 10 11 11 11 11 10 9 10 9 9 9 8 8 8 8 9 9 9 9 9 9 8 8 9 8 8 8 8 8 8 7 6 6 5 3 3 4 5 5 6 6 5
10 10 10 11 11 11 10 9 10 9 10 9 8 9 8 8 8 9 9 9 9 9 8 8 8 8 7 7 7 7 8 7 6 7 7 7 7 6 5 4 3 6 6
10 10 10 10 10 10 9 9 9 9 10 10 9 8 8 8 9 8 8 8 8 7 7 7 7 7 7 7 7 7 7 7 7 7 6 6 6 6 6 6 6 6 6
9 10 10 10 10 9 9 9 9 9 9 9 8 8 9 9 8 9 8 8 8 8 8 8 8 8 8 7 7 7 7 7 6 5 5 6 6 5 6 5 6 5 5
9 9 9 9 9 8 9 8 8 9 9 8 8 8 8 8 9 8 9 9 9 9 9 9 8 7 7 6 6 6 7 8 7 7 7 7 7 7 6 7 7 7 7
8 9 9 9 9 8 8 9 9 8 8 8 8 8 8 8 8 8 8 8 8 8 8 7 8 8 7 7 7 7 7 7 7 7 7 7 8 7 7 7 7 7 7
6 6 7 8 8 8 8 8 8 8 8 7 8 8 8 7 8 7 8 7 8 8 8 8 8 8 8 8 8 8 8 8 7 7 7 7 7 6 6 6 5 5 6
3 1 2 5 6 7 7 7 7 8 8 8 8 8 8 8 8 8 8 8 7 7 7 8 8 8 8 8 8 8 7 7 7 7 6 6 6 6 6 6 6 5 5
1 1 0 2 4 4 5 5 6 6 6 6 7 7 7 7 7 8 8 8 8 7 7 7 7 7 7 7 7 7 6 5 5 5 5 5 5 4 4 4 4 2 2
0 0 -0 1 2 2 2 4 3 3 4 4 3 3 3 4 5 5 6 6 6 5 4 4 4 5 5 5 5 5 5 4 3 3 2 1 0 0 -0 -1 -1 -2 -2
0 0 1 2 2 2 3 3 1 1 2 2 2 2 1 1 2 3 3 3 4 3 3 2 2 2 2 2 1 1 1 0 0 -1 -2 -2 -2 -3 -4 -6 -6 -6 -6
-1 -1 -1 0 -1 -1 -0 0 0 0 0 1 1 0 0 -0 -1 -1 -0 0 0 1 1 -0 -1 -2 -3 -3 -3 -3 -3 -3 -3 -3 -4 -4 -6 -6 -7 -7 -8 -8 -8
-4 -3 -3 -1 -1 -1 -1 -3 -3 -4 -4 -3 -3 -3 -4 -4 -4 -4 -4 -3 -3 -3 -4 -5 -5 -5 -5 -5 -5 -5 -5 -5 -5 -6 -7 -8 -8 -8 -9 -9 -9 -9 -10
-6 -5 -5 -5 -5 -4 -4 -4 -5 -5 -5 -5 -5 -5 -5 -5 -5 -5 -5 -5 -5 -6 -6 -6 -7 -7 -7 -7 -7 -8 -8 -8 -8 -8 -8 -9 -9 -10 -12 -13 -11 -12 -14
-7 -7 -7 -7 -7 -8 -7 -7 -7 -6 -6 -6 -6 -6 -6 -6 -6 -6 -6 -7 -7 -7 -7 -7 -8 -9 -9 -9 -9 -9 -9 -10 -10 -10 -11 -11 -12 -12 -12 -12 -13 -14 -16
-7 -8 -8 -8 -8 -8 -8 -9 -8 -8 -7 -7 -7 -7 -7 -7 -7 -8 -8 -8 -8 -8 -9 -9 -10 -10 -11 -11 -11 -11 -12 -15 -15 -14 -13 -12 -12 -13 -13 -12 -12 -13 -15
-8 -8 -8 -8 -9 -9 -9 -9 -9 -10 -9 -8 -8 -8 -8 -8 -8 -9 -10 -9 -9 -10 -11 -11 -12 -12 -12 -13 -14 -14 -14 -16 -20 -18 -20 -20 -15 -15 -15 -17 -16 -16 -16
-9 -10 -9 -9 -9 -9 -9 -9 -10 -10 -10 -11 -11 -9 -9 -9 -9 -9 -9 -10 -11 -12 -12 -13 -13 -13 -13 -14 -15 -18 -25 -29 -26 -18 -18 -18 -16 -14 -15 -14 -14 -20 -16
-10 -10 -11 -10 -10 -11 -11 -11 -11 -11 -12 -11 -11 -11 -12 -11 -11 -11 -12 -13 -13 -14 -14 -14 -15 -15 -15 -15 -16 -15 -15 -16 -16 -15 -17 -17 -15 -15 -15 -15 -18 -15 -16
-11 -11 -11 -11 -11 -11 -12 -12 -12 -12 -13 -13 -11 -12 -13 -14 -14 -15 -15 -15 -15 -15 -16 -16 -16 -16 -16 -16 -16 -17 -20 -18 -25 -18 -21 -17 -20 -16 -16 -16 -16 -16 -16
-12 -12 -12 -12 -12 -12 -13 -13 -13 -13 -13 -14 -15 -16 -16 -15 -16 -16 -17 -17 -17 -17 -17 -17 -19 -25 -28 -25 -23 -19 -24 -26 -28 -25 -21 -19 -18 -17 -17 -17 -17 -17 -16
-13 -13 -13 -13 -13 -13 -13 -14 -14 -14 -15 -15 -15 -16 -16 -17 -17 -17 -18 -19 -19 -25 -24 -24 -27 -28 -27 -28 -28 -29 -29 -29 -29 -29 -29 -22 -18 -20 -18 -18 -18 -18 -18
-14 -14 -14 -15 -14 -14 -14 -15 -16 -18 -16 -16 -16 -17 -17 -18 -18 -20 -23 -23 -24 -27 -28 -29 -29 -29 -29 -29 -29 -29 -29 -29 -29 -29 -29 -28 -20 -19 -19 -19 -18 -18 -19
-15 -15 -15 -15 -15 -15 -15 -16 -16 -16 -17 -17 -17 -18 -18 -19 -19 -19 -23 -28 -28 -28 -28 -29 -29 -29 -29 -29 -29 -29 -29 -29 -29 -29 -29 -27 -22 -25 -20 -22 -20 -20 -19
-17 -17 -16 -16 -16 -16 -16 -17 -17 -18 -18 -18 -19 -19 -19 -20 -20 -21 -26 -28 -28 -28 -28 -28 -28 -28 -28 -28 -28 -28 -28 -29 -29 -29 -28 -28 -25 -21 -21 -21 -20 -21 -20
Wind_Speed
31 40 34 27 25 22 19 19 19 17 16 15 16 19 19 24 21 21 22 23 24 24 26 34 37 42 45 44 40 41 40 36 31 35 30 24 20 25 26 30 33 31 31
29 35 34 26 26 22 19 18 20 18 17 16 17 19 19 22 23 26 24 23 23 24 26 28 32 37 39 40 42 40 38 34 33 35 38 34 35 36 39 33 30 29 31
25 30 30 27 27 21 18 19 21 18 19 17 15 16 17 19 21 23 22 22 23 22 24 23 23 25 31 34 33 31 38 37 38 33 31 29 26 25 28 38 40 38 39
19 24 30 28 23 19 17 19 19 19 19 19 17 17 16 17 16 16 15 16 16 18 19 18 18 20 21 23 27 27 25 27 36 39 43 38 32 32 30 34 36 36 37
17 20 25 24 20 19 18 19 18 17 17 16 17 15 14 15 16 16 14 14 15 15 14 15 16 19 23 24 24 27 27 29 31 38 42 45 48 48 36 43 43 50 44
23 22 21 21 20 21 20 19 18 17 14 14 14 14 14 14 18 18 18 17 17 16 16 16 18 21 21 20 23 25 24 25 32 34 38 38 43 40 42 41 42 39 40
21 22 23 23 22 21 18 16 16 16 14 10 12 13 17 21 20 20 19 19 19 17 18 21 23 24 26 27 29 30 31 32 36 38 34 33 33 31 34 36 33 32 29
18 16 16 20 21 22 22 21 20 20 18 16 17 17 19 22 22 22 21 20 21 25 18 20 25 27 25 28 31 33 28 29 32 34 42 48 48 48 48 50 53 55 56
23 19 13 16 17 17 18 18 18 18 19 22 23 22 22 23 22 21 20 20 21 25 30 32 31 28 30 31 30 30 30 29 29 30 30 32 35 37 38 40 40 40 42
27 17 19 18 16 14 11 10 10 11 14 16 17 17 19 19 19 19 19 19 20 22 23 26 30 31 31 31 31 28 28 29 29 30 31 31 32 34 36 36 32 28 23
18 18 18 19 20 17 17 17 12 11 8 9 10 9 6 6 5 7 10 11 13 15 15 15 16 20 21 22 22 18 18 18 19 19 19 17 14 14 14 12 10 9 10
16 14 13 15 16 13 13 11 12 11 9 10 10 8 9 10 7 4 2 1 4 5 5 4 4 6 8 8 8 5 3 5 6 5 6 3 3 4 4 5 5 4 3
13 11 13 12 12 13 11 10 11 7 7 7 6 6 7 7 8 7 5 4 5 3 4 2 2 2 4 6 8 8 7 7 6 4 4 4 4 4 4 5 5 6 5
10 12 14 15 14 12 11 11 10 11 9 10 10 10 11 9 9 8 8 9 10 10 11 11 11 11 11 12 11 10 10 9 8 8 8 8 7 6 6 6 6 4 6
10 11 13 15 15 15 13 13 12 11 10 10 9 10 11 12 13 11 10 11 13 13 13 12 12 12 13 13 13 13 12 11 11 10 9 8 7 7 7 7 7 7 7
10 11 11 10 10 11 13 16 15 13 13 13 13 13 15 15 14 13 13 12 12 12 12 14 14 13 13 12 11 10 9 10 10 8 8 8 8 7 7 7 7 7 6
9 9 8 9 9 10 10 10 13 14 12 11 12 12 13 14 14 13 10 8 9 9 13 13 13 12 11 11 10 9 9 8 7 7 7 8 9 7 7 7 7 7 7
11 9 9 9 9 8 7 7 8 8 10 13 12 12 12 12 12 13 11 7 9 10 12 12 10 10 9 8 7 7 7 7 7 7 7 7 7 5 5 5 5 4 6
9 10 9 8 7 7 7 7 7 8 9 10 9 8 9 7 5 4 2 7 10 10 10 9 9 9 9 8 8 8 7 7 7 7 7 6 6 5 5 5 7 7 7
11 9 9 8 8 8 7 8 7 7 6 5 6 9 6 4 4 6 7 9 10 10 9 8 8 8 8 8 6 8 7 7 7 8 7 4 5 5 5 5 5 5 7
8 9 9 8 7 7 7 7 7 6 5 5 6 8 8 5 7 7 8 8 8 8 7 7 6 6 7 7 7 6 6 6 5 5 3 4 6 5 5 6 6 6 7
8 7 6 5 4 5 6 5 6 6 6 6 6 5 7 6 7 7 6 6 7 7 6 5 5 4 4 4 5 5 5 4 3 3 4 5 5 5 5 6 6 5 7
7 6 6 5 6 6 4 4 5 5 5 5 5 5 5 6 6 6 5 5 4 3 4 3 3 3 4 4 4 3 2 3 4 4 4 4 5 3 4 4 6 6 7
6 5 5 6 3 4 5 6 6 4 5 4 4 4 4 5 5 4 2 3 3 3 3 3 3 4 4 4 4 5 5 5 5 6 5 5 4 5 3 5 5 8 8
6 6 5 4 4 4 4 3 3 3 3 3 3 3 3 3 3 2 2 2 2 3 3 4 4 5 4 5 5 6 6 6 7 7 7 6 7 6 7 6 8 6 8
5 5 4 4 3 3 3 2 2 2 2 2 2 2 2 1 1 3 3 3 4 4 5 5 5 5 5 6 6 6 7 7 8 8 8 8 7 6 6 6 7 9 7
Wind_Direction
207 193 185 178 188 187 186 184 204 195 193 194 196 189 198 211 213 212 221 229 229 235 230 231 240 240 239 242 239 230 234 234 236 240 242 241 250 255 247 251 253 255 262
201 196 194 187 188 186 184 181 190 193 187 191 190 194 205 211 214 216 227 229 231 233 237 242 240 243 242 243 240 231 236 232 232 240 249 243 256 256 260 257 259 257 262
195 191 186 190 190 182 183 184 194 185 183 185 184 187 195 203 209 214 221 227 227 229 230 237 240 242 242 237 237 242 238 242 247 240 249 256 252 259 265 255 260 266 271
196 196 187 188 183 181 184 188 192 187 185 187 189 197 195 188 196 200 205 212 220 220 227 231 227 223 224 225 230 233 234 234 233 243 251 256 257 262 264 267 265 264 267
190 185 184 173 179 178 184 186 185 187 191 197 198 197 205 205 209 210 220 228 217 225 235 234 230 225 224 225 227 231 235 241 250 251 257 258 262 268 264 271 265 266 268
158 166 166 174 176 182 181 177 183 178 181 188 191 196 208 210 218 225 215 224 229 227 228 234 235 239 245 249 248 245 244 251 251 255 262 263 268 265 263 264 269 267 268
149 156 160 169 169 167 177 177 180 181 180 191 203 207 213 224 230 230 233 234 237 252 257 256 255 258 261 256 255 256 259 261 257 258 260 263 262 259 260 258 258 263 270
119 125 146 163 166 168 172 177 183 184 179 195 207 203 219 230 232 236 242 243 241 242 238 237 241 243 241 247 250 249 249 253 258 258 256 258 260 264 266 270 275 277 278
67 67 91 127 140 152 162 172 179 187 195 205 212 214 223 233 239 243 244 245 244 242 244 248 248 249 250 251 254 259 263 260 263 265 262 262 263 268 269 270 271 276 277
46 39 61 79 87 98 120 141 150 169 171 172 191 202 215 225 235 239 241 240 245 244 245 249 251 253 255 259 261 261 260 262 264 265 269 267 268 268 273 273 274 281 282
45 46 46 66 65 64 70 73 85 109 120 128 121 116 134 183 230 256 256 246 237 240 239 247 257 267 275 280 284 282 273 266 257 262 260 268 272 285 294 303 307 296 279
45 52 53 61 64 80 76 89 82 77 90 83 75 88 74 62 68 58 62 104 193 215 229 251 285 308 310 305 297 282 228 226 241 247 251 271 320 9 40 42 38 32 30
41 47 69 72 67 73 88 91 88 85 78 87 94 81 81 75 70 76 91 120 127 136 125 86 335 55 68 67 80 93 99 102 107 111 95 80 68 60 45 44 47 52 48
40 49 51 60 74 80 79 76 85 90 77 76 72 72 68 75 77 72 78 89 99 103 103 98 93 87 84 89 98 100 99 101 96 88 83 80 72 65 56 51 40 31 24
35 43 48 43 53 67 70 78 79 82 81 92 93 101 96 91 86 87 95 102 106 106 107 104 97 94 94 92 94 94 92 91 89 88 81 65 52 40 44 47 47 43 48
38 41 58 65 64 55 61 71 72 86 96 101 104 98 97 96 95 97 97 100 100 101 105 97 93 90 86 83 78 78 84 82 72 64 64 62 56 48 36 39 44 51 43
47 46 51 63 66 73 72 68 70 71 73 85 92 98 108 117 112 105 105 111 112 116 99 92 86 80 73 71 69 66 60 67 70 69 66 61 54 41 40 37 36 37 35
43 54 61 65 71 79 94 103 96 85 77 75 78 90 100 110 116 112 95 94 85 79 78 74 71 68 68 68 71 72 70 63 61 59 55 54 48 42 39 35 32 41 28
50 51 50 56 71 75 77 81 84 88 90 84 69 78 83 85 99 110 103 88 75 69 69 68 70 72 69 69 68 66 68 64 63 58 49 44 43 37 34 39 13 11 43
31 58 62 62 64 70 73 75 74 76 84 97 115 115 73 76 83 81 77 74 73 73 72 72 71 74 77 68 66 72 55 58 51 44 35 34 37 38 22 22 8 16 3
25 27 45 51 60 65 69 73 76 75 72 81 90 109 111 75 71 67 67 75 81 79 78 76 74 78 68 61 51 50 56 43 51 34 41 27 15 29 17 4 8 4 345
25 29 38 41 48 68 60 67 79 83 75 54 38 50 75 71 74 73 73 75 76 74 75 78 68 62 63 58 60 51 29 23 7 15 9 10 28 354 6 358 353 351 345
18 22 28 33 38 44 51 72 69 61 68 72 68 64 63 74 83 77 74 73 67 73 83 75 68 51 41 33 25 16 2 350 342 344 336 353 355 300 352 343 341 341 334
16 33 26 10 57 42 35 33 31 51 81 73 72 75 80 75 64 58 71 74 47 40 33 26 22 11 5 354 352 346 344 332 322 319 311 309 321 310 317 317 331 323 335
24 28 33 38 55 56 55 67 72 75 76 79 74 73 63 63 62 45 9 7 6 360 356 350 346 341 339 329 325 324 321 315 311 305 299 295 302 312 317 322 309 317 319
18 21 25 32 33 40 43 44 46 54 59 55 52 51 46 2 17 342 332 328 332 328 324 324 324 322 323 317 325 318 314 308 302 300 297 295 301 300 291 275 306 309 316
Height
1387 1393 1398 1407 1413 1417 1419 1422 1424 1427 1431 1434 1435 1438 1443 1447 1451 1455 1459 1462 1466 1469 1473 1476 1479 1481 1483 1487 1491 1496 1499 1504 1506 1510 1514 1516 1516 1516 1518 1520 1520 1520 1520
1384 1390 1397 1406 1409 1413 1416 1419 1422 1424 1429 1432 1433 1436 1441 1445 1448 1451 1455 1457 1461 1464 1467 1470 1473 1475 1478 1480 1484 1489 1493 1497 1501 1504 1507 1508 1510 1511 1511 1512 1513 1512 1513
1384 1390 1395 1403 1407 1411 1415 1416 1418 1423 1426 1430 1432 1434 1437 1441 1445 1448 1451 1454 1457 1460 1463 1465 1467 1470 1473 1477 1481 1484 1487 1491 1495 1497 1498 1502 1503 1504 1504 1505 1504 1506 1505
1386 1390 1394 1400 1406 1410 1415 1414 1416 1420 1424 1427 1431 1434 1436 1439 1443 1446 1449 1451 1454 1456 1458 1460 1462 1465 1469 1473 1476 1479 1483 1485 1487 1489 1491 1494 1495 1495 1497 1495 1496 1495 1494
1386 1387 1393 1399 1404 1408 1412 1412 1416 1418 1422 1426 1429 1433 1436 1439 1442 1445 1447 1449 1452 1454 1455 1458 1460 1464 1467 1469 1472 1474 1477 1479 1480 1482 1482 1484 1484 1485 1487 1487 1487 1487 1487
1379 1388 1392 1397 1401 1405 1408 1411 1414 1417 1420 1423 1427 1432 1435 1438 1438 1442 1445 1448 1450 1452 1455 1457 1459 1460 1462 1464 1467 1470 1472 1473 1473 1475 1475 1474 1474 1477 1479 1480 1479 1478 1477
1384 1389 1389 1393 1397 1401 1406 1409 1413 1416 1418 1423 1426 1430 1431 1431 1434 1437 1440 1443 1446 1449 1451 1453 1454 1456 1457 1459 1461 1463 1464 1465 1466 1468 1468 1469 1467 1468 1468 1468 1468 1467 1466
1385 1388 1391 1393 1395 1398 1402 1406 1410 1413 1411 1416 1423 1425 1427 1427 1430 1433 1436 1439 1442 1443 1444 1445 1447 1448 1448 1451 1452 1454 1453 1454 1455 1457 1458 1458 1458 1460 1460 1460 1460 1459 1458
1389 1394 1395 1392 1392 1395 1398 1402 1406 1407 1410 1414 1419 1420 1422 1423 1426 1429 1431 1434 1435 1436 1437 1438 1440 1441 1442 1444 1446 1448 1445 1446 1447 1449 1449 1448 1448 1449 1449 1450 1448 1448 1447
1397 1406 1402 1396 1394 1395 1399 1400 1402 1403 1407 1408 1411 1413 1416 1418 1420 1423 1425 1427 1428 1429 1430 1431 1432 1434 1433 1435 1437 1439 1438 1438 1438 1438 1440 1438 1438 1438 1439 1441 1438 1439 1440
1412 1406 1405 1401 1397 1402 1401 1399 1405 1407 1408 1410 1407 1411 1414 1414 1415 1417 1418 1419 1421 1423 1424 1425 1426 1426 1427 1429 1430 1431 1431 1431 1430 1431 1432 1433 1434 1432 1433 1436 1435 1434 1434
1414 1417 1414 1408 1404 1409 1406 1411 1411 1412 1413 1410 1410 1413 1414 1414 1413 1416 1417 1418 1419 1421 1423 1424 1425 1426 1426 1425 1426 1426 1427 1428 1428 1429 1432 1432 1432 1432 1434 1434 1433 1432 1431
1422 1423 1418 1412 1411 1406 1412 1413 1409 1418 1416 1414 1415 1416 1414 1414 1416 1418 1419 1419 1421 1422 1424 1426 1427 1427 1427 1425 1425 1426 1429 1429 1429 1430 1430 1431 1432 1433 1435 1435 1434 1433 1433
1433 1427 1423 1417 1413 1414 1416 1419 1416 1416 1421 1417 1417 1415 1416 1417 1418 1421 1422 1422 1423 1424 1425 1427 1428 1428 1428 1428 1429 1430 1431 1431 1431 1431 1432 1432 1433 1434 1434 1434 1434 1435 1435
1433 1427 1423 1421 1420 1420 1423 1421 1420 1419 1419 1420 1420 1420 1418 1422 1422 1424 1424 1426 1427 1428 1427 1428 1430 1430 1431 1432 1432 1432 1433 1433 1432 1433 1434 1435 1436 1437 1436 1436 1437 1436 1436
1432 1430 1429 1428 1429 1429 1426 1425 1426 1424 1423 1425 1426 1425 1423 1426 1427 1428 1429 1430 1431 1432 1431 1430 1432 1435 1434 1434 1435 1435 1433 1433 1434 1436 1435 1435 1436 1439 1440 1439 1438 1437 1437
1434 1433 1432 1431 1431 1430 1432 1434 1432 1431 1429 1430 1430 1429 1429 1430 1431 1432 1434 1434 1435 1435 1433 1434 1436 1438 1438 1437 1436 1438 1436 1436 1436 1436 1437 1436 1435 1440 1442 1441 1440 1439 1438
1436 1435 1435 1435 1434 1434 1436 1436 1436 1434 1433 1434 1434 1434 1435 1435 1435 1436 1437 1438 1439 1437 1437 1439 1440 1440 1439 1438 1439 1438 1437 1438 1437 1437 1435 1435 1438 1441 1440 1440 1438 1437 1437
1440 1439 1438 1438 1437 1437 1438 1437 1438 1437 1436 1438 1439 1439 1439 1439 1439 1440 1440 1440 1440 1440 1441 1442 1443 1442 1441 1441 1440 1439 1439 1437 1436 1436 1435 1438 1440 1442 1441 1441 1440 1437 1435
1443 1442 1442 1442 1442 1442 1441 1440 1441 1440 1439 1439 1440 1441 1443 1443 1442 1442 1442 1442 1441 1442 1444 1445 1444 1443 1442 1441 1440 1439 1438 1438 1438 1437 1438 1441 1442 1442 1440 1440 1438 1438 1437
1446 1445 1444 1445 1445 1445 1444 1442 1442 1442 1443 1442 1442 1442 1444 1445 1444 1444 1443 1443 1444 1444 1444 1444 1444 1442 1441 1439 1439 1438 1438 1438 1436 1439 1439 1440 1441 1441 1441 1440 1438 1438 1437
1449 1448 1447 1446 1445 1445 1445 1446 1446 1445 1445 1445 1444 1444 1445 1445 1444 1444 1444 1443 1442 1442 1442 1442 1442 1440 1438 1437 1437 1437 1437 1437 1438 1438 1439 1439 1439 1440 1440 1438 1439 1438 1437
1451 1450 1449 1448 1447 1446 1446 1447 1447 1447 1447 1447 1446 1445 1445 1445 1446 1445 1442 1442 1442 1441 1440 1440 1439 1439 1438 1437 1436 1436 1436 1436 1438 1437 1438 1438 1439 1438 1438 1438 1438 1436 1435
1452 1452 1451 1449 1448 1448 1448 1448 1447 1447 1448 1447 1447 1447 1447 1446 1444 1442 1442 1441 1440 1439 1439 1439 1438 1438 1438 1437 1436 1436 1436 1436 1436 1436 1436 1437 1437 1437 1436 1436 1436 1436 1435
1454 1453 1452 1452 1451 1450 1450 1450 1449 1449 1449 1448 1448 1447 1446 1445 1444 1442 1440 1440 1439 1438 1438 1438 1438 1438 1437 1436 1436 1436 1435 1435 1435 1435 1435 1435 1434 1434 1434 1433 1433 1433 1434
1453 1452 1451 1451 1450 1450 1449 1449 1448 1448 1447 1446 1445 1444 1444 1442 1441 1440 1439 1439 1438 1438 1437 1437 1437 1437 1436 1435 1435 1435 1434 1434 1434 1433 1433 1432 1431 1431 1432 1431 1432 1431 1431